| time (UTC) | temp F | wind direction | speed MPH | gust MPH | rain 1hr in | rain 24hr in | rain mn in | humidity % | barometer mb |
| 20260504050551 | 58 | 0 | 0.0 | 4.0 | 0.00 | 0.00 | 0.00 | 70 | 1016.2 |
| 20260504050106 | 58 | 37 | 1.0 | 4.0 | 0.00 | 0.00 | 0.00 | 70 | 1016.0 |
| 20260504045553 | 58 | 75 | 1.0 | 6.0 | 0.00 | 0.00 | 0.00 | 70 | 1016.1 |
| 20260504045048 | 58 | 72 | 0.0 | 6.0 | 0.00 | 0.00 | 0.00 | 70 | 1016.2 |
| 20260504044554 | 58 | 16 | 1.0 | 3.0 | 0.00 | 0.00 | 0.00 | 70 | 1016.1 |
| 20260504044048 | 58 | 42 | 1.0 | 3.0 | 0.00 | 0.00 | 0.00 | 70 | 1016.2 |
| 20260504043549 | 58 | 79 | 1.0 | 2.0 | 0.00 | 0.00 | 0.00 | 70 | 1016.2 |
| 20260504043112 | 58 | 94 | 0.0 | 2.0 | 0.00 | 0.00 | 0.00 | 70 | 1016.2 |
| 20260504042553 | 58 | 53 | 0.0 | 3.0 | 0.00 | 0.00 | 0.00 | 69 | 1016.2 |
| 20260504042052 | 58 | 44 | 0.0 | 3.0 | 0.00 | 0.00 | 0.00 | 69 | 1016.1 |
| 20260504041555 | 58 | 53 | 0.0 | 3.0 | 0.00 | 0.00 | 0.00 | 69 | 1016.2 |
| 20260504041051 | 58 | 63 | 0.0 | 3.0 | 0.00 | 0.00 | 0.00 | 68 | 1016.1 |
| 20260504040555 | 58 | 81 | 0.0 | 3.0 | 0.00 | 0.00 | 0.00 | 68 | 1016.1 |
| 20260504035555 | 58 | 44 | 1.0 | 3.0 | 0.00 | 0.00 | 0.00 | 68 | 1016.3 |
| 20260504035051 | 58 | 75 | 0.0 | 2.0 | 0.00 | 0.00 | 0.00 | 68 | 1016.3 |
| 20260504034556 | 58 | 0 | 0.0 | 2.0 | 0.00 | 0.00 | 0.00 | 68 | 1016.3 |
| 20260504034051 | 58 | 62 | 0.0 | 2.0 | 0.00 | 0.00 | 0.00 | 68 | 1016.4 |
| 20260504033548 | 59 | 65 | 0.0 | 2.0 | 0.00 | 0.00 | 0.00 | 68 | 1016.4 |
| 20260504033104 | 59 | 65 | 0.0 | 1.0 | 0.00 | 0.00 | 0.00 | 68 | 1016.5 |
| 20260504032548 | 59 | 0 | 0.0 | 2.0 | 0.00 | 0.00 | 0.00 | 67 | 1016.5 |
| 20260504032048 | 59 | 66 | 0.0 | 2.0 | 0.00 | 0.00 | 0.00 | 67 | 1016.6 |
| 20260504031558 | 59 | 0 | 0.0 | 2.0 | 0.00 | 0.00 | 0.00 | 66 | 1016.6 |
| 20260504031050 | 59 | 0 | 0.0 | 1.0 | 0.00 | 0.00 | 0.00 | 66 | 1016.6 |
| 20260504030548 | 59 | 64 | 0.0 | 2.0 | 0.00 | 0.00 | 0.00 | 66 | 1016.7 |
| 20260504030104 | 60 | 64 | 0.0 | 2.0 | 0.00 | 0.00 | 0.00 | 65 | 1016.7 |
| 20260504025551 | 60 | 0 | 0.0 | 1.0 | 0.00 | 0.00 | 0.00 | 64 | 1016.7 |
| 20260504025049 | 60 | 0 | 0.0 | 2.0 | 0.00 | 0.00 | 0.00 | 64 | 1016.6 |
| 20260504024553 | 60 | 58 | 0.0 | 2.0 | 0.00 | 0.00 | 0.00 | 63 | 1016.7 |
| 20260504024048 | 60 | 51 | 0.0 | 2.0 | 0.00 | 0.00 | 0.00 | 63 | 1016.5 |
| 20260504023548 | 60 | 0 | 0.0 | 2.0 | 0.00 | 0.00 | 0.00 | 63 | 1016.5 |
| 20260504023054 | 61 | 0 | 0.0 | 3.0 | 0.00 | 0.00 | 0.00 | 62 | 1016.5 |
| 20260504022552 | 61 | 0 | 0.0 | 3.0 | 0.00 | 0.00 | 0.00 | 62 | 1016.5 |
| 20260504022052 | 61 | 0 | 0.0 | 3.0 | 0.00 | 0.00 | 0.00 | 61 | 1016.5 |
| 20260504021556 | 61 | 70 | 0.0 | 2.0 | 0.00 | 0.00 | 0.00 | 61 | 1016.4 |
| 20260504021051 | 61 | 82 | 0.0 | 2.0 | 0.00 | 0.00 | 0.00 | 61 | 1016.4 |
| 20260504020554 | 61 | 74 | 0.0 | 2.0 | 0.00 | 0.00 | 0.00 | 61 | 1016.2 |
| 20260504020105 | 61 | 0 | 0.0 | 2.0 | 0.00 | 0.00 | 0.00 | 61 | 1016.4 |
| 20260504015549 | 61 | 0 | 0.0 | 1.0 | 0.00 | 0.00 | 0.00 | 60 | 1016.3 |
| 20260504015052 | 62 | 0 | 0.0 | 1.0 | 0.00 | 0.00 | 0.00 | 59 | 1016.2 |
| 20260504014605 | 62 | 61 | 0.0 | 1.0 | 0.00 | 0.00 | 0.00 | 59 | 1016.2 |
| 20260504014051 | 62 | 62 | 0.0 | 1.0 | 0.00 | 0.00 | 0.00 | 58 | 1016.1 |
| 20260504013554 | 62 | 62 | 0.0 | 1.0 | 0.00 | 0.00 | 0.00 | 57 | 1016.1 |
| 20260504013059 | 63 | 0 | 0.0 | 1.0 | 0.00 | 0.00 | 0.00 | 57 | 1016.0 |
| 20260504012550 | 63 | 0 | 0.0 | 1.0 | 0.00 | 0.00 | 0.00 | 56 | 1016.0 |
| 20260504012048 | 63 | 0 | 0.0 | 1.0 | 0.00 | 0.00 | 0.00 | 55 | 1016.1 |
| 20260504011554 | 64 | 61 | 0.0 | 1.0 | 0.00 | 0.00 | 0.00 | 54 | 1016.1 |
| 20260504011048 | 64 | 0 | 0.0 | 1.0 | 0.00 | 0.00 | 0.00 | 53 | 1016.0 |
| 20260504010548 | 65 | 0 | 0.0 | 1.0 | 0.00 | 0.00 | 0.00 | 52 | 1016.0 |
| 20260504010100 | 65 | 0 | 0.0 | 1.0 | 0.00 | 0.00 | 0.00 | 51 | 1016.0 |
| 20260504005549 | 66 | 60 | 0.0 | 1.0 | 0.00 | 0.00 | 0.00 | 50 | 1016.0 |
| 20260504005050 | 67 | 60 | 0.0 | 1.0 | 0.00 | 0.00 | 0.00 | 49 | 1016.1 |
| 20260504004554 | 67 | 0 | 0.0 | 1.0 | 0.00 | 0.00 | 0.00 | 48 | 1016.1 |
| 20260504004051 | 68 | 0 | 0.0 | 1.0 | 0.00 | 0.00 | 0.00 | 47 | 1016.1 |
| 20260504003551 | 69 | 60 | 0.0 | 3.0 | 0.00 | 0.00 | 0.00 | 45 | 1016.1 |
| 20260504003058 | 69 | 59 | 0.0 | 3.0 | 0.00 | 0.00 | 0.00 | 45 | 1016.1 |
| 20260504002551 | 70 | 64 | 1.0 | 3.0 | 0.00 | 0.00 | 0.00 | 44 | 1016.1 |
| 20260504002051 | 70 | 50 | 1.0 | 3.0 | 0.00 | 0.00 | 0.00 | 43 | 1016.1 |
| 20260504001601 | 71 | 75 | 1.0 | 5.0 | 0.00 | 0.00 | 0.00 | 42 | 1016.0 |
| 20260504001049 | 71 | 64 | 1.0 | 5.0 | 0.00 | 0.00 | 0.00 | 41 | 1016.0 |
| 20260504000548 | 72 | 93 | 0.0 | 6.0 | 0.00 | 0.00 | 0.00 | 40 | 1016.0 |
| 20260504000104 | 72 | 360 | 2.0 | 6.0 | 0.00 | 0.00 | 0.00 | 39 | 1016.1 |
| 20260503235553 | 73 | 98 | 2.0 | 5.0 | 0.00 | 0.00 | 0.00 | 39 | 1016.2 |
| 20260503235053 | 74 | 79 | 1.0 | 5.0 | 0.00 | 0.00 | 0.00 | 37 | 1016.2 |
| 20260503234555 | 75 | 75 | 2.0 | 5.0 | 0.00 | 0.00 | 0.00 | 36 | 1016.1 |
| 20260503234048 | 75 | 15 | 2.0 | 4.0 | 0.00 | 0.00 | 0.00 | 36 | 1016.2 |
| 20260503233553 | 75 | 84 | 0.0 | 4.0 | 0.00 | 0.00 | 0.00 | 37 | 1016.4 |
| 20260503233055 | 75 | 51 | 1.0 | 8.0 | 0.00 | 0.00 | 0.00 | 35 | 1016.4 |
| 20260503232555 | 75 | 6 | 1.0 | 8.0 | 0.00 | 0.00 | 0.00 | 36 | 1016.5 |
| 20260503232051 | 75 | 51 | 2.0 | 10.0 | 0.00 | 0.00 | 0.00 | 35 | 1016.5 |
| 20260503231556 | 75 | 25 | 2.0 | 10.0 | 0.00 | 0.00 | 0.00 | 35 | 1016.4 |
| 20260503231049 | 75 | 352 | 1.0 | 8.0 | 0.00 | 0.00 | 0.00 | 35 | 1016.5 |
| 20260503230549 | 75 | 318 | 3.0 | 8.0 | 0.00 | 0.00 | 0.00 | 32 | 1016.6 |
| 20260503230110 | 76 | 70 | 2.0 | 10.0 | 0.00 | 0.00 | 0.00 | 32 | 1016.6 |
| 20260503225548 | 76 | 21 | 3.0 | 10.0 | 0.00 | 0.00 | 0.00 | 33 | 1016.6 |
| 20260503225048 | 76 | 72 | 2.0 | 10.0 | 0.00 | 0.00 | 0.00 | 33 | 1016.7 |
| 20260503224554 | 76 | 43 | 1.0 | 8.0 | 0.00 | 0.00 | 0.00 | 33 | 1016.8 |
| 20260503224048 | 76 | 290 | 3.0 | 11.0 | 0.00 | 0.00 | 0.00 | 32 | 1016.9 |
| 20260503223552 | 76 | 63 | 4.0 | 11.0 | 0.00 | 0.00 | 0.00 | 32 | 1017.0 |
| 20260503223112 | 76 | 78 | 2.0 | 8.0 | 0.00 | 0.00 | 0.00 | 34 | 1017.1 |
| 20260503222551 | 77 | 73 | 1.0 | 8.0 | 0.00 | 0.00 | 0.00 | 34 | 1017.1 |
| 20260503222051 | 77 | 101 | 4.0 | 8.0 | 0.00 | 0.00 | 0.00 | 31 | 1017.1 |
| 20260503221555 | 77 | 297 | 2.0 | 7.0 | 0.00 | 0.00 | 0.00 | 32 | 1017.2 |
| 20260503221052 | 78 | 70 | 2.0 | 13.0 | 0.00 | 0.00 | 0.00 | 33 | 1017.2 |
| 20260503220548 | 77 | 84 | 1.0 | 13.0 | 0.00 | 0.00 | 0.00 | 34 | 1017.3 |
| 20260503220058 | 77 | 65 | 2.0 | 7.0 | 0.00 | 0.00 | 0.00 | 32 | 1017.3 |
| 20260503215548 | 77 | 71 | 2.0 | 6.0 | 0.00 | 0.00 | 0.00 | 32 | 1017.3 |
| 20260503215048 | 77 | 84 | 2.0 | 7.0 | 0.00 | 0.00 | 0.00 | 33 | 1017.4 |
| 20260503214557 | 77 | 140 | 2.0 | 7.0 | 0.00 | 0.00 | 0.00 | 32 | 1017.5 |
| 20260503214048 | 77 | 37 | 2.0 | 7.0 | 0.00 | 0.00 | 0.00 | 32 | 1017.5 |
| 20260503213551 | 77 | 19 | 3.0 | 7.0 | 0.00 | 0.00 | 0.00 | 32 | 1017.6 |
| 20260503213053 | 77 | 96 | 2.0 | 7.0 | 0.00 | 0.00 | 0.00 | 34 | 1017.6 |
| 20260503212552 | 78 | 98 | 2.0 | 5.0 | 0.00 | 0.00 | 0.00 | 33 | 1017.6 |
| 20260503212051 | 77 | 51 | 2.0 | 6.0 | 0.00 | 0.00 | 0.00 | 31 | 1017.7 |
| 20260503211552 | 77 | 77 | 2.0 | 8.0 | 0.00 | 0.00 | 0.00 | 34 | 1018.0 |
| 20260503211050 | 77 | 156 | 3.0 | 8.0 | 0.00 | 0.00 | 0.00 | 34 | 1018.0 |
| 20260503210550 | 77 | 32 | 2.0 | 6.0 | 0.00 | 0.00 | 0.00 | 32 | 1018.0 |
| 20260503210055 | 77 | 79 | 3.0 | 8.0 | 0.00 | 0.00 | 0.00 | 37 | 1018.2 |
| 20260503205550 | 77 | 108 | 2.0 | 8.0 | 0.00 | 0.00 | 0.00 | 36 | 1018.1 |
| 20260503205050 | 77 | 74 | 2.0 | 6.0 | 0.00 | 0.00 | 0.00 | 34 | 1018.2 |
| 20260503204555 | 77 | 62 | 1.0 | 6.0 | 0.00 | 0.00 | 0.00 | 39 | 1018.2 |
| 20260503204050 | 76 | 84 | 3.0 | 6.0 | 0.00 | 0.00 | 0.00 | 34 | 1018.2 |
| 20260503203549 | 76 | 63 | 3.0 | 6.0 | 0.00 | 0.00 | 0.00 | 36 | 1018.4 |
| 20260503203057 | 77 | 95 | 1.0 | 6.0 | 0.00 | 0.00 | 0.00 | 35 | 1018.4 |
| 20260503202551 | 76 | 55 | 1.0 | 11.0 | 0.00 | 0.00 | 0.00 | 35 | 1018.4 |
| 20260503202051 | 76 | 82 | 1.0 | 11.0 | 0.00 | 0.00 | 0.00 | 36 | 1018.6 |
| 20260503201554 | 76 | 18 | 2.0 | 7.0 | 0.00 | 0.00 | 0.00 | 33 | 1018.6 |
| 20260503201052 | 76 | 102 | 2.0 | 7.0 | 0.00 | 0.00 | 0.00 | 35 | 1018.7 |
| 20260503200550 | 75 | 61 | 2.0 | 8.0 | 0.00 | 0.00 | 0.00 | 36 | 1018.9 |
| 20260503200100 | 75 | 85 | 2.0 | 10.0 | 0.00 | 0.00 | 0.00 | 36 | 1019.1 |
| 20260503195551 | 75 | 69 | 4.0 | 10.0 | 0.00 | 0.00 | 0.00 | 34 | 1019.2 |
| 20260503195050 | 75 | 335 | 3.0 | 9.0 | 0.00 | 0.00 | 0.00 | 34 | 1019.4 |
| 20260503194624 | 75 | 6 | 3.0 | 8.0 | 0.00 | 0.00 | 0.00 | 34 | 1019.5 |
| 20260503194053 | 75 | 39 | 4.0 | 8.0 | 0.00 | 0.00 | 0.00 | 35 | 1019.5 |
| 20260503193550 | 75 | 298 | 3.0 | 8.0 | 0.00 | 0.00 | 0.00 | 38 | 1019.5 |
| 20260503193101 | 75 | 37 | 3.0 | 6.0 | 0.00 | 0.00 | 0.00 | 37 | 1019.6 |
| 20260503192549 | 74 | 120 | 2.0 | 9.0 | 0.00 | 0.00 | 0.00 | 39 | 1019.6 |
| 20260503192055 | 74 | 58 | 3.0 | 9.0 | 0.00 | 0.00 | 0.00 | 37 | 1019.7 |
| 20260503191601 | 75 | 338 | 1.0 | 8.0 | 0.00 | 0.00 | 0.00 | 39 | 1019.8 |
| 20260503191050 | 74 | 92 | 4.0 | 10.0 | 0.00 | 0.00 | 0.00 | 39 | 1019.9 |
| 20260503190551 | 74 | 311 | 3.0 | 10.0 | 0.00 | 0.00 | 0.00 | 38 | 1020.0 |
| 20260503190056 | 74 | 306 | 4.0 | 11.0 | 0.00 | 0.00 | 0.00 | 37 | 1020.1 |
| 20260503185549 | 74 | 285 | 2.0 | 11.0 | 0.00 | 0.00 | 0.00 | 41 | 1020.1 |
| 20260503185054 | 74 | 56 | 4.0 | 9.0 | 0.00 | 0.00 | 0.00 | 40 | 1020.2 |
| 20260503184553 | 74 | 2 | 3.0 | 12.0 | 0.00 | 0.00 | 0.00 | 40 | 1020.2 |
| 20260503184050 | 74 | 78 | 3.0 | 12.0 | 0.00 | 0.00 | 0.00 | 40 | 1020.4 |
| 20260503183550 | 74 | 53 | 2.0 | 7.0 | 0.00 | 0.00 | 0.00 | 40 | 1020.5 |
| 20260503183058 | 74 | 142 | 2.0 | 7.0 | 0.00 | 0.00 | 0.00 | 45 | 1020.6 |
| 20260503182550 | 73 | 86 | 3.0 | 7.0 | 0.00 | 0.00 | 0.00 | 40 | 1020.7 |
| 20260503182050 | 73 | 103 | 2.0 | 7.0 | 0.00 | 0.00 | 0.00 | 41 | 1020.7 |
| 20260503181605 | 73 | 302 | 3.0 | 7.0 | 0.00 | 0.00 | 0.00 | 40 | 1021.0 |
| 20260503181055 | 73 | 86 | 3.0 | 7.0 | 0.00 | 0.00 | 0.00 | 40 | 1020.9 |
| 20260503180551 | 73 | 75 | 2.0 | 10.0 | 0.00 | 0.00 | 0.00 | 43 | 1020.9 |
| 20260503180055 | 72 | 58 | 3.0 | 10.0 | 0.00 | 0.00 | 0.00 | 41 | 1021.0 |
| 20260503175551 | 73 | 33 | 3.0 | 8.0 | 0.00 | 0.00 | 0.00 | 38 | 1021.1 |
| 20260503175050 | 73 | 81 | 3.0 | 11.0 | 0.00 | 0.00 | 0.00 | 40 | 1021.1 |
| 20260503174556 | 72 | 37 | 2.0 | 11.0 | 0.00 | 0.00 | 0.00 | 45 | 1021.3 |
| 20260503174050 | 72 | 75 | 3.0 | 9.0 | 0.00 | 0.00 | 0.00 | 40 | 1021.4 |
| 20260503173550 | 72 | 68 | 2.0 | 9.0 | 0.00 | 0.00 | 0.00 | 42 | 1021.5 |
| 20260503173100 | 73 | 356 | 1.0 | 6.0 | 0.00 | 0.00 | 0.00 | 40 | 1021.6 |
| 20260503172551 | 72 | 71 | 3.0 | 6.0 | 0.00 | 0.00 | 0.00 | 44 | 1021.7 |
| 20260503172049 | 72 | 46 | 2.0 | 7.0 | 0.00 | 0.00 | 0.00 | 40 | 1021.7 |
| 20260503171552 | 72 | 92 | 3.0 | 7.0 | 0.00 | 0.00 | 0.00 | 40 | 1021.8 |
| 20260503171050 | 71 | 4 | 2.0 | 9.0 | 0.00 | 0.00 | 0.00 | 41 | 1021.9 |
| 20260503170551 | 71 | 87 | 4.0 | 9.0 | 0.00 | 0.00 | 0.00 | 44 | 1022.1 |
| 20260503150550 | 66 | 37 | 2.0 | 7.0 | 0.00 | 0.00 | 0.00 | 52 | 1022.8 |
| 20260503131050 | 54 | 84 | 0.0 | 4.0 | 0.00 | 0.00 | 0.00 | 80 | 1022.8 |
| 20260503130550 | 53 | 78 | 0.0 | 4.0 | 0.00 | 0.00 | 0.00 | 83 | 1022.9 |
| 20260503120105 | 41 | 0 | 0.0 | 1.0 | 0.00 | 0.00 | 0.00 | 99 | 1022.5 |
| 20260503110551 | 40 | 0 | 0.0 | 0.0 | 0.00 | 0.00 | 0.00 | 98 | 1021.8 |
| 20260503081553 | 43 | 0 | 0.0 | 0.0 | 0.00 | 0.00 | 0.00 | 94 | 1021.6 |
| 20260503081049 | 43 | 0 | 0.0 | 0.0 | 0.00 | 0.00 | 0.00 | 94 | 1021.5 |
| 20260503080551 | 43 | 0 | 0.0 | 0.0 | 0.00 | 0.00 | 0.00 | 94 | 1021.5 |
| 20260503072556 | 44 | 0 | 0.0 | 0.0 | 0.00 | 0.00 | 0.00 | 92 | 1021.5 |
| 20260503072052 | 44 | 0 | 0.0 | 0.0 | 0.00 | 0.00 | 0.00 | 91 | 1021.5 |
| 20260503071557 | 44 | 0 | 0.0 | 0.0 | 0.00 | 0.00 | 0.00 | 90 | 1021.5 |
| 20260503071051 | 45 | 0 | 0.0 | 0.0 | 0.00 | 0.00 | 0.00 | 90 | 1021.4 |
| 20260503070551 | 45 | 0 | 0.0 | 0.0 | 0.00 | 0.00 | 0.00 | 90 | 1021.4 |